CW8553 Weather Reports


Display with metric or nautical units.
time (UTC)temp
F
wind
direction
speed
MPH
gust
MPH
rain 1hr
in
rain 24hr
in
rain mn
in
humidity
%
barometer
mb
20260506161541 51 0 0.0 0.0 0.00 0.00 0.00 95 1019.7
20260506160036 51 0 0.0 0.0 0.00 0.00 0.00 95 1019.8
20260506154548 51 0 0.0 0.0 0.00 0.00 0.00 95 1020.0
20260506153037 51 0 0.0 0.0 0.00 0.00 0.00 94 1020.0
20260506151541 51 0 0.0 0.0 0.00 0.00 0.00 95 1019.7
20260506150035 51 0 0.0 0.0 0.00 0.00 0.00 95 1019.7
20260506144539 51 0 0.0 0.0 0.00 0.00 0.00 94 1019.8
20260506143039 51 0 0.0 0.0 0.00 0.00 0.00 94 1019.5
20260506141539 51 0 0.0 0.0 0.00 0.00 0.00 93 1019.3
20260506140038 52 0 0.0 0.0 0.00 0.00 0.00 93 1019.4
20260506134535 52 0 0.0 0.0 0.00 0.00 0.00 93 1019.2
20260506133042 52 0 0.0 0.0 0.00 0.00 0.00 92 1019.2
20260506131539 52 0 0.0 0.0 0.00 0.00 0.00 92 1019.2
20260506130040 52 0 0.0 0.0 0.00 0.00 0.00 92 1018.9
20260506124540 52 0 0.0 0.0 0.00 0.00 0.00 92 1018.8
20260506123037 52 0 0.0 0.0 0.00 0.00 0.00 92 1018.7
20260506121547 52 0 0.0 0.0 0.00 0.00 0.00 92 1018.6
20260506120041 52 0 0.0 0.0 0.00 0.00 0.00 92 1018.6
20260506114541 52 0 0.0 0.0 0.00 0.00 0.00 92 1018.4
20260506113038 52 0 0.0 0.0 0.00 0.00 0.00 91 1018.5
20260506111537 52 0 0.0 0.0 0.00 0.00 0.00 91 1018.5
20260506110042 52 0 0.0 0.0 0.00 0.00 0.00 90 1018.4
20260506104539 52 0 0.0 0.0 0.00 0.00 0.00 90 1018.3
20260506103037 52 0 0.0 0.0 0.00 0.00 0.00 90 1018.1
20260506101538 52 0 0.0 0.0 0.00 0.00 0.00 90 1018.0
20260506100038 52 0 0.0 0.0 0.00 0.00 0.00 90 1017.8
20260506094536 52 0 0.0 0.0 0.00 0.00 0.00 90 1017.7
20260506093043 52 0 0.0 0.0 0.00 0.00 0.00 90 1017.7
20260506091538 52 0 0.0 0.0 0.00 0.00 0.00 90 1017.6
20260506090037 53 0 0.0 0.0 0.00 0.00 0.00 90 1017.5
20260506084544 53 0 0.0 0.0 0.00 0.00 0.00 90 1017.5
20260506083038 52 0 0.0 0.0 0.00 0.00 0.00 90 1017.3
20260506081541 52 0 0.0 0.0 0.00 0.00 0.00 90 1017.3
20260506073039 53 0 0.0 0.0 0.00 0.00 0.00 89 1017.0
20260506071539 53 0 0.0 0.0 0.00 0.00 0.00 89 1016.8
20260506061538 55 0 0.0 0.0 0.00 0.00 0.00 87 1016.3
20260506044543 57 0 0.0 0.0 0.00 0.00 0.00 84 1015.7
20260506043042 57 0 0.0 0.0 0.00 0.00 0.00 85 1015.7
20260506041555 57 0 0.0 0.0 0.00 0.00 0.00 84 1015.7
20260506040040 58 0 0.0 0.0 0.00 0.00 0.00 81 1015.7
20260506034549 58 0 0.0 0.0 0.00 0.00 0.00 80 1015.5
20260506033039 59 0 0.0 0.0 0.00 0.00 0.00 80 1015.4
20260506031535 60 0 0.0 0.0 0.00 0.00 0.00 79 1015.2
20260506030040 60 0 0.0 0.0 0.00 0.00 0.00 78 1015.1
20260506024538 61 0 0.0 0.0 0.00 0.00 0.00 77 1015.2
20260506023039 61 0 0.0 0.0 0.00 0.00 0.00 76 1015.1
20260506021536 62 0 0.0 0.0 0.00 0.00 0.00 74 1015.1
20260506020034 62 0 0.0 0.0 0.00 0.00 0.00 74 1015.2
20260506014538 62 0 0.0 0.0 0.00 0.00 0.00 74 1015.1
20260506013050 62 0 0.0 0.0 0.00 0.00 0.00 74 1015.1
20260506011546 62 0 0.0 0.0 0.00 0.00 0.00 74 1015.1
20260506010037 62 0 0.0 0.0 0.00 0.00 0.00 75 1015.2
20260506004539 62 0 0.0 0.0 0.00 0.00 0.00 75 1015.2
20260506003038 63 0 0.0 0.0 0.00 0.00 0.00 74 1015.3
20260506001536 62 0 0.0 0.0 0.00 0.00 0.00 74 1015.4
20260506000036 62 0 0.0 0.0 0.00 0.00 0.00 75 1015.5
20260505234540 62 0 0.0 0.0 0.00 0.00 0.00 75 1015.7
20260505233038 63 0 0.0 0.0 0.00 0.00 0.00 73 1015.9
20260505231537 63 0 0.0 0.0 0.00 0.00 0.00 73 1015.9
20260505230056 62 0 0.0 0.0 0.00 0.00 0.00 75 1015.9
20260505224540 61 0 0.0 0.0 0.00 0.00 0.00 75 1016.1
20260505223042 61 0 0.0 0.0 0.00 0.00 0.00 76 1016.2
20260505221544 60 0 0.0 0.0 0.00 0.00 0.00 77 1016.4
20260505220050 60 0 0.0 0.0 0.00 0.00 0.00 76 1016.5
20260505214540 60 0 0.0 0.0 0.00 0.00 0.00 78 1016.6
20260505213040 60 0 0.0 0.0 0.00 0.00 0.00 77 1016.6
20260505211538 60 0 0.0 0.0 0.00 0.00 0.00 79 1016.5
20260505210037 59 0 0.0 0.0 0.00 0.00 0.00 78 1016.6
20260505204537 59 0 0.0 0.0 0.00 0.00 0.00 78 1016.7
20260505203036 59 0 0.0 0.0 0.00 0.00 0.00 80 1016.7
20260505201536 58 0 0.0 0.0 0.00 0.00 0.00 81 1016.5
20260505200042 58 0 0.0 0.0 0.00 0.00 0.00 81 1016.6
20260505194543 58 0 0.0 0.0 0.00 0.00 0.00 82 1016.6
20260505193044 57 0 0.0 0.0 0.00 0.00 0.00 82 1016.4
20260505191542 57 0 0.0 0.0 0.00 0.00 0.00 82 1016.4
20260505190038 57 0 0.0 0.0 0.00 0.00 0.00 83 1016.4
20260505184540 56 0 0.0 0.0 0.00 0.00 0.00 83 1016.4
20260505183040 56 0 0.0 0.0 0.00 0.00 0.00 84 1016.5
20260505181543 56 0 0.0 0.0 0.00 0.00 0.00 84 1016.3
20260505180037 56 0 0.0 0.0 0.00 0.00 0.00 85 1016.2
20260505174535 56 0 0.0 0.0 0.00 0.00 0.00 85 1016.3
20260505173040 55 0 0.0 0.0 0.00 0.00 0.00 86 1016.3
20260505171537 55 0 0.0 0.0 0.00 0.00 0.00 86 1016.2
20260505170038 55 0 0.0 0.0 0.00 0.00 0.00 87 1016.1
20260505164535 55 0 0.0 0.0 0.00 0.00 0.00 86 1016.1
20260505163034 55 0 0.0 0.0 0.00 0.00 0.00 87 1016.1